Regional Weather Roundup
Issued by NWS

Home | Current Version | Previous Version | Graphics & Text | Print | Product List | Glossary On
Versions: 1 2 3 4 5 6 7 8 9 10 11 12 13 14 15 16 17 18 19 20 21 22 23 24 25 26 27 28 29 30 31 32 33 34 35 36 37 38 39 40 41 42 43 44 45 46 47 48 49 50
968
ASUS43 KMPX 280401
RWRMN
WEATHER ROUNDUP FOR MINNESOTA
NATIONAL WEATHER SERVICE TWIN CITIES/CHANHASSEN MN
1100 PM CDT TUE SEP 27 2016


NOTE: "FAIR" INDICATES FEW OR NO CLOUDS BELOW 12,000 FEET WITH NO
SIGNIFICANT WEATHER AND/OR OBSTRUCTIONS TO VISIBILITY. N/A MEANS
CURRENT SKY AND/OR WEATHER CONDITIONS ARE NOT AVAILABLE.

MNZ060>063-068>070-280500-
   Twin Cities Metro

CITY           SKY/WX    TMP DP  RH WIND       PRES   REMARKS
TWIN CITIES    MOCLDY    50  45  83 N13       29.89R
ST PAUL        CLOUDY    50  45  83 NW10      29.90R
CRYSTAL        CLOUDY    49  44  83 N8        29.89R
BLAINE         CLOUDY    50  48  93 N8        29.89R
LAKEVILLE      MOCLDY    48  45  87 N9        29.89R
EDEN PRAIRIE   PTCLDY    50  45  83 N9        29.88S
LAKEVILLE      MOCLDY    48  45  87 N9        29.89R
SOUTH ST PAUL  CLOUDY    50  45  84 N6        29.88S
LAKE ELMO      CLOUDY    48  46  93 N8        29.89R
$$
MNZ001>005-007-008-013>017-022>024-027-028-280500-
   Northwest Minnesota

CITY           SKY/WX    TMP DP  RH WIND       PRES   REMARKS
BEMIDJI        PTCLDY    40  40  99 NW6       29.98R
HALLOCK        CLOUDY    48  45  87 NE3       30.04R
ROSEAU         CLOUDY    46  41  81 N6        30.03R
WARROAD        CLOUDY    48  45  87 N6        30.02R
THIEF RVR FALL   N/A     49  41  74 N12       30.03R
CROOKSTON      CLOUDY    46  43  87 N3        30.04R
FOSSTON        CLOUDY    39  37  93 N3        30.01R
DETROIT LAKES  CLOUDY    46  43  87 N5        30.00R
MOORHEAD       CLOUDY    52  43  71 NE10      30.01R
PARK RAPIDS    PTCLDY    46  41  82 N8        29.97R
MAHNOMEN       CLOUDY    46  41  85 N5        30.00R
$$
MNZ006-009>011-018-025>026-280500-
   North Central Minnesota

CITY           SKY/WX    TMP DP  RH WIND       PRES   REMARKS
BAUDETTE       CLOUDY    49  45  86 N3        30.01R
FLAG ISLAND    CLOUDY    52  46  82 N10       30.01R
INTL FALLS     CLOUDY    51  46  83 N9        29.96R
WASKISH        CLOUDY    46  45  93 N7        29.99R
BIG FORK       CLOUDY    48  46  93 N5        29.96R
GRAND RAPIDS   CLOUDY    48  46  93 N10       29.95R
ORR            CLOUDY    48  45  87 CALM      29.92R
COOK           CLOUDY    48  46  93 N7        29.93R
WALKER         FAIR      40  40  98 NW3       29.97R
$$
MNZ012-019>021-037-280500-
   Northeast Minnesota

CITY           SKY/WX    TMP DP  RH WIND       PRES   REMARKS
DULUTH         CLOUDY    50  48  93 N14G21    29.87R
ELY            CLOUDY    48  48 100 N3        29.90R FOG
HIBBING        CLOUDY    48  46  93 N15G22    29.91R
EVELETH        CLOUDY    50  47  88 N9G18     29.91R
DULUTH HARBOR  MOCLDY    54  48  82 N17       29.87R
TWO HARBORS    CLOUDY    54  48  82 N8G20     29.84R
SILVER BAY     CLOUDY    54  48  82 N6        29.83R
GRAND MARAIS     N/A     56  49  77 N8G17     29.81R
G MARAIS ARPRT CLOUDY    48  45  87 N12G18    29.84R
$$
MNZ029>031-032-039>041-046>048-054>057-064-280500-
   West Central Minnesota

CITY           SKY/WX    TMP DP  RH WIND       PRES   REMARKS
FERGUS FALLS   CLOUDY    48  43  81 NE9G16    30.00R
MORRIS         MOCLDY    52  45  76 N9        29.96R
ALEXANDRIA     MOCLDY    47  43  86 N13       29.98R
ELBOW LAKE     CLOUDY    50  44  80 NE12      29.96S
GLENWOOD       CLEAR     46  45  93 N10       29.96R
BENSON         CLOUDY    52  43  71 NE10      29.96R
ORTONVILLE     MOCLDY    52  43  71 CALM      29.96R
MADISON        PTCLDY    54  45  71 N8        29.96R
WILLMAR        MOCLDY    52  46  82 NE14G22   29.96R
$$
MNZ033>034-036-042>043-049>051-058-059-280500-
   Central Minnesota

CITY           SKY/WX    TMP DP  RH WIND       PRES   REMARKS
ST CLOUD       MOCLDY    46  45  96 N6        29.92R
SAUK CENTRE    FAIR      45  42  90 N9        29.96R
PAYNESVILLE    CLEAR     46  46 100 N5        29.95R
AITKIN         CLOUDY    48  45  87 NW8       29.91R
PINE RIVER     PTCLDY    46  45  93 N9        29.98R
BRAINERD       MOCLDY    48  44  86 N15       29.94R
STAPLES        CLOUDY    45  43  93 N8        29.96R
LONG PRAIRIE   CLOUDY    45  41  87 NW6       29.96R
LITTLE FALLS   CLEAR     43  41  93 NW3       29.94R
LITCHFIELD     PTCLDY    48  45  87 N7        29.94R
BUFFALO        PTCLDY    48  43  81 N9G18     29.92R
MAPLE LAKE     CLEAR     47  45  92 N8        29.93R
HUTCHINSON     CLOUDY    49  44  83 N8G20     29.94R
$$
MNZ037-044-045-052-053-280500-
   East Central Minnesota

CITY           SKY/WX    TMP DP  RH WIND       PRES   REMARKS
PRINCETON      CLOUDY    48  46  93 NW8       29.91S
MORA           CLOUDY    45  43  93 N6        29.91R
CAMBRIDGE      CLOUDY    52  43  71 NW7       29.88S
MOOSE LAKE     CLOUDY    48  45  87 N7        29.87R
HINCKLEY       CLOUDY    48  46  93 N8        29.89R
CLOQUET        CLOUDY    48  45  87 N10       29.88R
MCGREGOR       CLOUDY    48  45  87 N10       29.91R
$$
MNZ071>073-080-081-089-090-097-098-280500-
   Southwest Minnesota

CITY           SKY/WX    TMP DP  RH WIND       PRES   REMARKS
MONTEVIDEO     CLOUDY    54  45  71 NE8       29.97R
GRANITE FALLS  CLOUDY    55  45  70 N9        29.95R
CANBY          CLEAR     46  41  81 W6        29.97R
MARSHALL       CLOUDY    54  43  66 NE10      29.95R
REDWOOD FALLS  CLOUDY    53  43  68 N9G20     29.93R
OLIVIA         CLOUDY    52  43  71 N8        29.93R
PIPESTONE      CLEAR     52  34  50 NE7       29.93R
WINDOM         CLOUDY    54  43  66 N12       29.92R
WORTHINGTON    CLOUDY    53  39  59 N8        29.92R
JACKSON        CLOUDY    54  41  62 NE8       29.91R
TRACY          CLOUDY    55  45  69 NE14G20   29.94R
$$
MNZ065>067-074>077-082>085-091>093-280500-
   South Central Minnesota

CITY           SKY/WX    TMP DP  RH WIND       PRES   REMARKS
MANKATO        MOCLDY    50  44  80 N13       29.90S
ST JAMES       CLOUDY    52  45  76 N7        29.92R
FAIRMONT       CLOUDY    52  44  74 N10G20    29.91R
GLENCOE        MOCLDY    50  47  90 N7        29.91R
FARIBAULT      PTCLDY    48  46  93 NW9       29.89R
OWATONNA       MOCLDY    48  45  87 N9        29.88R
WASECA         CLOUDY    52  46  82 N10       29.90R
ALBERT LEA     CLOUDY    52  45  76 N10G18    29.87R
$$
MNZ078>079-086>088-094>096-280500-
   Southeast Minnesota

CITY           SKY/WX    TMP DP  RH WIND       PRES   REMARKS
ROCHESTER      CLOUDY    48  46  93 N13       29.86R
RED WING       CLOUDY    50  46  87 N3        29.86R
DODGE CENTER   CLOUDY    48  45  87 N8        29.87R
WINONA         MOCLDY    48  46  93 NW10      29.84R
AUSTIN         CLEAR     46  43  87 N8        29.86R
PRESTON        MOCLDY    46  44  90 NW9       29.85R
$$
ABBREVIATIONS USED IN REMARKS
   TC - TEMPERATURES IN CELSIUS
  WCI - WIND CHILL INDEX
   HX - HEAT INDEX
  VSB - VISIBILITY
$$




USA.gov is the U.S. government's official web portal to all federal, state and local government web resources and services.